Location: Baumgarten
(49.0970°N, 12.7493°E)
Time: 18:12:27
(UTC+00:00)

Cosmos 1709 Rocket - Pass Details

Date: 05 July 2020
Orbit: 948 x 1002 km, 82.9° (Epoch: 13 August)

Event Time Altitude Azimuth Distance (km) Brightness Sun altitude
Exits shadow 20:24:11 - 183° (S) 3,607 6.5 -8.9°
Reaches altitude 10° 20:26:30 10° 182° (S) 2,734 5.9 -9.1°
Maximum altitude 20:32:47 80° 97° (E) 1,015 4.0 -9.8°
Drops below altitude 10° 20:39:11 10° 11° (NNE) 2,781 7.0 -10.4°
Sets 20:41:44 0° 11° (N) 3,738 7.8 -10.6°
